Regional Weather Roundup
Issued by NWS Kansas City/Pleasant Hill, MO

Home | Current Version | Previous Version | Text Only | Print | Product List | Glossary On
Versions: 1 2 3 4 5 6 7 8 9 10 11 12 13 14 15 16 17 18 19 20 21 22 23 24 25 26 27 28 29 30 31 32 33 34 35 36 37 38 39 40 41 42 43 44 45 46 47 48 49 50
000
ASUS43 KEAX 290410
RWREAX

WEATHER ROUNDUP FOR EASTERN KANSAS AND NORTHWEST MISSOURI
NATIONAL WEATHER SERVICE KANSAS CITY/PLEASANT HILL MO
1000 PM CST SUN DEC 28 2014

KSZ040-057-103>105-MOZ028-029-037-043-290500-
...KANSAS CITY METROPOLITAN AREA...

CITY           SKY/WX    TMP DP  RH WIND       PRES   REMARKS
K.C. INTL      CLOUDY    29  21  72 SE6       30.17S WCI  23
K.C. DOWNTOWN  MOCLDY    33  23  66 CALM      30.18S
LEES SUMMIT    CLEAR     31  20  63 SE6       30.18S WCI  25
OLATHE - IXD   PTCLDY    27  20  75 SE5       30.18R WCI  22
OLATHE - OJC   PTCLDY    28  18  66 SE5       30.17R WCI  23
LAWRENCE       MOCLDY    26  22  84 CALM      30.18S

$$

MOZ001>008-011>017-020>025-030>033-038>040-044>046-053-054-290500-
...NORTHERN AND CENTRAL MISSOURI...

CITY           SKY/WX    TMP DP  RH WIND       PRES   REMARKS
ST. JOSEPH     CLOUDY    28  23  81 N3        30.19R
MOSBY            N/A     28  25  86 CALM      30.19S
WHITEMAN AFB   FAIR      32  19  59 S2        30.17R
CLINTON        CLEAR     27  23  86 CALM      30.20S
SEDALIA        CLEAR     31  17  56 CALM      30.20S
WARSAW         NOT AVBL
MARSHALL       PTCLDY    30  23  74 SE3       30.21S
CHILLICOTHE      N/A     28  23  81 CALM      30.21R
MOBERLY        PTCLDY    27  19  74 CALM      30.21F
KIRKSVILLE     PTCLDY    28  19  69 CALM      30.20S

$$

MOZ041-047>049-056>058-063>065-088>090-097-290500-
...EASTERN AND SOUTHERN MISSOURI...

CITY           SKY/WX    TMP DP  RH WIND       PRES   REMARKS
ST. LOUIS INTL CLEAR     28  22  78 CALM      30.23F
SPIRIT OF STL  CLEAR     24  21  88 CALM      30.23S
COLUMBIA       PTCLDY    31  22  69 SE3       30.20S
JEFFERSON CITY CLEAR     25  21  85 CALM      30.23S
MEXICO         FAIR      28  28 100 CALM      30.21R
HANNIBAL       MOCLDY    28  21  74 CALM      30.22S
ROLLA          CLEAR     25  21  85 CALM      30.18S
LEBANON        CLEAR     27  23  86 CALM      30.17S
OSAGE BEACH    CLEAR     25  21  86 CALM      30.20S
SPRINGFIELD    CLEAR     26  21  81 CALM      30.16R
BRANSON        CLEAR     25  23  93 CALM      30.17S
NEVADA         CLEAR     25  21  86 CALM      30.20S
JOPLIN         CLEAR     27  23  85 E5        30.17S WCI  22
WEST PLAINS    CLEAR     23  20  88 CALM      30.18S

$$

IAZ060-094-KSZ022-034>040-054-083-096-NEZ052-066-093-290500-
...KANSAS...SOUTHEAST NEBRASKA AND IOWA...

CITY           SKY/WX    TMP DP  RH WIND       PRES   REMARKS
TOPEKA         CLOUDY    32  23  69 CALM      30.18R
MANHATTAN      MOCLDY    30  21  69 CALM      30.16R
EMPORIA        PTCLDY    25  18  74 S7        30.15R WCI  17
CHANUTE        CLEAR     27  20  75 SE3       30.17R
WICHITA        CLEAR     29  17  61 E6        30.12R WCI  23
OMAHA          CLOUDY    25  22  88 N5        30.19F WCI  19
LINCOLN        CLOUDY    26  21  81 N7        30.18R WCI  18
FALLS CITY     CLOUDY    31  23  72 CALM      30.17R
LAMONI         CLOUDY    31  19  61 E3        30.18S
DES MOINES     CLOUDY    30  22  72 NE7       30.21R WCI  23

$$



USA.gov is the U.S. government's official web portal to all federal, state and local government web resources and services.